Hourly Data Report for August 09, 2005

TORONTO CITY
ONTARIO

43°40'00.000" N
79°24'00.000" W
112.50 m
6158355
71508
XTO

Download Data

Hourly Data (August 2005)
Hourly Data Report for August 9, 2005
TIME
LST
Temp Definition
°C
Dew Point Definition
°C
Rel Hum Definition
%
Precip. Amount Definition
mm

Wind Dir Definition
10's deg

Wind Spd Definition
km/h
Visibility Definition
km
Stn Press Definition
kPa
Hmdx Definition


Wind Chill Definition


Weather Definition


00:00 22.3 18.0 77   LegendMM LegendMM   100.41 28   LegendNANA
01:00 21.8 17.6 77   LegendMM LegendMM   100.38 28   LegendNANA
02:00 21.3 17.2 77   LegendMM LegendMM   100.37 27   LegendNANA
03:00 22.4 15.7 66   LegendMM LegendMM   100.35 27   LegendNANA
04:00 21.0 15.7 72   LegendMM LegendMM   100.34 25   LegendNANA
05:00 20.8 16.3 75   LegendMM LegendMM   100.37 26   LegendNANA
06:00 21.6 18.0 80   LegendMM LegendMM   100.38 28   LegendNANA
07:00 23.3 20.5 84   LegendMM LegendMM   100.37 31   LegendNANA
08:00 23.8 21.3 86   LegendMM LegendMM   100.37 32   LegendNANA
09:00 25.1 21.8 82   LegendMM LegendMM   100.35 34   LegendNANA
10:00 27.3 22.2 74   LegendMM LegendMM   100.35 37   LegendNANA
11:00 29.5 21.7 63   LegendMM LegendMM   100.35 39   LegendNANA
12:00 30.6 21.4 58   LegendMM LegendMM   100.33 39   LegendNANA
13:00 31.8 20.5 51   LegendMM LegendMM   100.24 40   LegendNANA
14:00 32.0 20.4 50   LegendMM LegendMM   100.17 40   LegendNANA
15:00 31.7 20.2 51   LegendMM LegendMM   100.10 39   LegendNANA
16:00 31.2 20.2 52   LegendMM LegendMM   100.06 39   LegendNANA
17:00 29.7 21.3 61   LegendMM LegendMM   100.02 38   LegendNANA
18:00 29.0 20.8 61   LegendMM LegendMM   100.04 37   LegendNANA
19:00 27.7 20.9 67   LegendMM LegendMM   100.02 36   LegendNANA
20:00 27.7 21.2 68   LegendMM LegendMM   100.08 36   LegendNANA
21:00 27.8 20.6 65   LegendMM LegendMM   100.12 36   LegendNANA
22:00 27.1 20.2 66   LegendMM LegendMM   100.10 35   LegendNANA
23:00 25.6 19.9 71   LegendMM LegendMM   100.09 33   LegendNANA

Notes on Data Quality.

Legend

  • E = Estimated
  • M = Missing
  • NA = Not Available*
  • [empty] = Indicates an unobserved value
Date modified: